RBSP A

Last updated on Nov. 15, 2019, 4:21 a.m. UTC

1 38752U 12046A   19317.45128691  .00002789  00000-0  47522-3 0  9994
2 38752   9.7823 130.3045 6931035 236.7869  37.9031  2.74058588 70591
UTC
Height (km)
Latitude
Longitude
Inclination
Orbital Period
UTC large
Height (km)
Speed (km/s)
/
Latitude / Longitude
Inclination (degrees)
Orbital Period (minutes)
Azimuth
Elevation
Range (km)
Doppler Factor
iOS Compass Heading
iOS Angle

Next 30 passes for location: Hong Kong

Rise time Rise Azimuth (degrees) Set time Set Azimuth (degrees) Duration Max altitude (degrees)

No matching passes for this satellites